Weather History for KCOF - March, 2013

Change the Weather History Date:

Monday, March 25, 2013

  Actual Average Record
Temperature  
Mean Temperature 67 °F -  
Max Temperature 75 °F 74 °F 86 °F (2005)
Min Temperature 57 °F 62 °F 49 °F (2008)
Cooling Degree Days 2    
Growing Degree Days 17 (Base 50)    
Moisture  
Dew Point 50 °F    
Average Humidity 62    
Maximum Humidity 95    
Minimum Humidity 19    
Precipitation  
Precipitation 0.00 in - - ()
Sea Level Pressure  
Sea Level Pressure 29.87 in    
Wind  
Wind Speed 14 mph (WNW)    
Max Wind Speed 21 mph    
Max Gust Speed 29 mph    
Visibility 10 miles    
Events      
Averages and records for this station are not official NWS values.
T = Trace of Precipitation, MM = Missing Value Source: NWS Daily Summary

Daily Weather History Graph

Daily Weather History Graph

Search for Another Location

Airport or City:

Trip Planner

Search our weather history database for the weather conditions in past years. The results will help you decide how hot, cold, wet, or windy it might be!

Date:

Astronomy

Mar. 25, 2013 Rise Set
Actual Time 7:20 AM EDT 7:36 PM EDT
Civil Twilight 6:56 AM EDT 8:00 PM EDT
Nautical Twilight 6:29 AM EDT 8:27 PM EDT
Astronomical Twilight 6:01 AM EDT 8:55 PM EDT
Moon 6:11 PM EDT (3/25) 5:55 AM EDT (3/25)
Length of Visible Light 13h 03m
Length of Day
12h 16m
Waxing Gibbous, 96% of the Moon is Illuminated
Mar 25
Waxing Gibbous
Mar 27
Full
Apr 3
Last Quarter
Apr 10
New
Apr 18
First Quarter

Hourly Weather History & Observations

Time (EDT) Temp. Dew Point Humidity Pressure Visibility Wind Dir Wind Speed Gust Speed Precip Events Conditions
12:58 AM 71.1 °F 69.6 °F 95% 29.75 in 10.0 mi WSW 10.4 mph - N/A   Clear
1:58 AM 70.5 °F 69.1 °F 95% 29.75 in 10.0 mi WSW 10.4 mph - N/A   Clear
2:58 AM 69.8 °F 67.6 °F 93% 29.75 in 10.0 mi West 15.0 mph - N/A   Clear
3:58 AM 68.4 °F 66.0 °F 92% 29.75 in 10.0 mi West 13.8 mph - N/A   Clear
4:58 AM 66.7 °F 64.0 °F 91% 29.75 in 10.0 mi West 12.7 mph - N/A   Clear
5:58 AM 65.7 °F 63.0 °F 91% 29.78 in 10.0 mi WNW 11.5 mph - N/A   Scattered Clouds
6:58 AM 64.6 °F 61.5 °F 90% 29.80 in 10.0 mi WNW 12.7 mph - N/A   Partly Cloudy
7:43 AM 64.4 °F 60.8 °F 88% 29.80 in 10.0 mi WNW 13.8 mph - N/A   Mostly Cloudy
7:48 AM 64.4 °F 60.8 °F 88% 29.80 in 10.0 mi WNW 11.5 mph - N/A   Scattered Clouds
7:58 AM 64.4 °F 60.8 °F 88% 29.81 in 10.0 mi WNW 12.7 mph - N/A   Scattered Clouds
8:58 AM 65.7 °F 61.0 °F 85% 29.86 in 10.0 mi NW 15.0 mph - N/A   Scattered Clouds
9:03 AM 66.2 °F 60.8 °F 83% 29.84 in 10.0 mi NW 17.3 mph - N/A   Mostly Cloudy
9:08 AM 64.4 °F 60.8 °F 88% 29.84 in 10.0 mi NW 16.1 mph - N/A   Scattered Clouds
9:13 AM 64.4 °F 59.0 °F 83% 29.84 in 10.0 mi NW 18.4 mph - N/A   Mostly Cloudy
9:18 AM 64.4 °F 59.0 °F 83% 29.84 in 10.0 mi NNW 17.3 mph - N/A   Scattered Clouds
9:38 AM 66.2 °F 57.2 °F 73% 29.86 in 10.0 mi WNW 16.1 mph 20.7 mph N/A   Mostly Cloudy
9:58 AM 66.0 °F 56.7 °F 72% 29.88 in 10.0 mi NW 17.3 mph - N/A   Mostly Cloudy
10:03 AM 66.2 °F 55.4 °F 68% 29.87 in 10.0 mi NW 16.1 mph - N/A   Scattered Clouds
10:58 AM 66.9 °F 42.6 °F 41% 29.91 in 10.0 mi NW 16.1 mph - N/A   Clear
11:58 AM 69.3 °F 39.9 °F 34% 29.93 in 10.0 mi WNW 13.8 mph - N/A   Clear
12:58 PM 70.5 °F 37.4 °F 30% 29.94 in 10.0 mi WNW 16.1 mph - N/A   Clear
1:58 PM 71.4 °F 35.6 °F 27% 29.91 in 10.0 mi West 11.5 mph - N/A   Clear
2:58 PM 74.1 °F 34.5 °F 24% 29.88 in 10.0 mi WNW 17.3 mph - N/A   Clear
3:58 PM 74.1 °F 31.1 °F 21% 29.88 in 10.0 mi WNW 20.7 mph 28.8 mph N/A   Clear
4:58 PM 73.9 °F 31.1 °F 21% 29.88 in 10.0 mi WNW 15.0 mph 23.0 mph N/A   Clear
5:58 PM 73.2 °F 28.8 °F 19% 29.90 in 10.0 mi West 15.0 mph - N/A   Clear
6:58 PM 71.6 °F 31.6 °F 23% 29.91 in 10.0 mi WNW 12.7 mph - N/A   Clear
7:58 PM 68.9 °F 33.4 °F 27% 29.94 in 10.0 mi WNW 11.5 mph - N/A   Clear
8:58 PM 67.1 °F 36.5 °F 32% 29.96 in 10.0 mi WSW 12.7 mph - N/A   Clear
9:58 PM 63.3 °F 37.0 °F 38% 29.99 in 10.0 mi West 13.8 mph - N/A   Clear
10:58 PM 60.3 °F 40.5 °F 48% 30.04 in 10.0 mi West 19.6 mph - N/A   Clear
11:58 PM 57.6 °F 41.4 °F 55% 30.04 in 10.0 mi WNW 17.3 mph - N/A   Clear